Regional Weather Roundup
Issued by NWS Portland, ME

Home | Current Version | Previous Version | Text Only | Print | Product List | Glossary On
Versions: 1 2 3 4 5 6 7 8 9 10 11 12 13 14 15 16 17 18 19 20 21 22 23 24 25 26 27 28 29 30 31 32 33 34 35 36 37 38 39 40 41 42 43 44 45 46 47 48 49 50
000
ASUS41 KGYX 271410
RWRGYX
WEATHER ROUNDUP FOR MAINE AND NEW HAMPSHIRE
NATIONAL WEATHER SERVICE GRAY ME
900 AM EST MON FEB 27 2017

MEZ002-005-006-010-012-015-018-020-021-024-026-027-029-271500-
MAINE

CITY           SKY/WX    TMP DP  RH WIND       PRES   REMARKS
PORTLAND       SUNNY     35  17  47 SW14      30.23S
SANFORD        SUNNY     34  19  54 SW9       30.25R
BAR HARBOR     SUNNY     37  23  56 SW14G22   30.19S
WISCASSET      SUNNY     37  19  48 SW13G22   30.22S
ROCKLAND       SUNNY     37  24  59 SW23G31   30.18F
FRYEBURG       SUNNY     36  16  44 SW10G17   30.18R
LEWISTONAUBURN SUNNY     34  18  52 SW16G23   30.19R
AUGUSTA        SUNNY     32  16  51 SW9       30.18S
WATERVILLE     SUNNY     31  18  58 S10G17    30.14S
BANGOR         MOSUNNY   31  17  56 S13       30.16F
GREENVILLE       N/A     24  15  68 VRB5      30.00S
MILLINOCKET    MOSUNNY   27  12  53 VRB6      30.08F
HOULTON        CLOUDY    26  13  57 SW13G22   30.03S WCI  15
PRESQUE ISLE   SUNNY     29  18  63 SW15G21   29.97F WCI  18
FRENCHVILLE    CLOUDY    24  16  71 S10       29.88S WCI  14
CARIBOU        CLOUDY    27  16  63 S12       29.94F WCI  17
$$

NHZ002-005-008-009-011-012-014-271500-
NEW HAMPSHIRE

CITY           SKY/WX    TMP DP  RH WIND       PRES   REMARKS
PORTSMOUTH     SUNNY     37  17  43 SW14G21   30.26R
ROCHESTER      SUNNY     37  17  44 VRB5      30.24R
NASHUA         SUNNY     36  18  48 VRB3      30.31R
MANCHESTER     SUNNY     36  15  42 SW10      30.28R
CONCORD        SUNNY     37  18  46 SW7       30.26R
LACONIA        SUNNY     34  18  52 MISG      30.22R
PLYMOUTH       FAIR      28  19  69 CALM      30.23R
BERLIN         PTSUNNY   35  17  47 SW14G24   30.09R
WHITEFIELD     SUNNY     36  18  48 SW14G24   30.13R
JAFFREY        SUNNY     33  15  47 SW9       30.26R
KEENE          SUNNY     35  19  52 S8        30.29R
LEBANON        MOSUNNY   36  19  50 S12       30.21R
MT WASHINGTON  FOG       10  10 100 W63G71      N/A  VSB 0   WCI -19
$$

VTZ005-007-008-271500-
VERMONT

CITY           SKY/WX    TMP DP  RH WIND       PRES   REMARKS
ST JOHNSBURY     N/A     32  20  61 MISG      30.13R
MONTPELIER     SUNNY     36  19  50 VRB6      30.17R
BURLINGTON     PTSUNNY   36  19  50 S20G28    30.15R
$$

MAZ007-012-024-CTZ003-RIZ002-NYZ038-NYZ072-271500-
SOUTHERN NEW ENGLAND AND NY

CITY           SKY/WX    TMP DP  RH WIND       PRES   REMARKS
BOSTON         MOSUNNY   39  19  44 SW18      30.33R
WORCESTER      SUNNY     34  15  46 SW15      30.29R
NANTUCKET      SUNNY     43  27  53 W18G26    30.39R
PROVIDENCE     PTSUNNY   40  19  43 SW13      30.38R
HARTFORD       PTSUNNY   37  18  46 SW13      30.35R
ALBANY         PTSUNNY   35  20  54 S10       30.29R
NEW YORK CITY  PTSUNNY   42  23  46 SW8       30.41R
$$

ANZ081-ANZ082-ANZ150-NHZ014-MEZ023>029-271500-
COASTAL MARINE OBSERVATIONS

STATION/POSITION TIME  TEMP    WIND        PRES    WAVE
                       AIR SEA DIR/SP/G            HT/PER
                 (UTC) (F)     (DEG/KT/KT) (MB)    (FT/S)
MOUNT DESERT ROC 1400   38                 1022.8F
MATINICUS ROCK   1300   37     240/ 26/ 29 1022.7R
ISLE OF SHOALS   1300   33     230/ 22/ 23 1024.4R
JEFFREYS LEDGE   1306      43                N/A     4/ 5
CASHES LEDGE BUO 1350   42 42              1024.2F   6/ 6
GEORGES BANK BUO 1250   40 43              1028.5    8/ 8
$$

.............KEY..............
   WCI - WIND CHILL
   TC  - TEMPERATURE IN CELSIUS
   VSB - VISIBILITY IN MILES
   HX  - HEAT INDEX
   FAIR- INDICATES FEW OR NO CLOUDS BELOW 12,000 FT, WITH NO
         SIGNIFICANT WEATHER AND/OR OBSTRUCTIONS TO VISIBILITY.





USA.gov is the U.S. government's official web portal to all federal, state and local government web resources and services.